Sioux Falls, SD

10:40 AM CDT on August 25, 2016 (GMT -0500)
Foss

Weather History for KFSD - July, 2012

Change the Weather History Date:

Thursday, July 26, 2012

  Actual Average Record
Temperature  
Mean Temperature 76 °F 73 °F  
Max Temperature 90 °F 84 °F 103 °F (1975)
Min Temperature 62 °F 62 °F 45 °F (1971)
Degree Days  
Heating Degree Days 0 0  
Month to date heating degree days 0 0  
Since 1 June heating degree days 21 51  
Since 1 July heating degree days 0 0  
Cooling Degree Days 11 8  
Month to date cooling degree days 457 216  
Year to date cooling degree days 784 387  
Since 1 June cooling degree days 698 351  
Growing Degree Days 26 (Base 50)    
Moisture  
Dew Point 57 °F    
Average Humidity 55    
Maximum Humidity 87    
Minimum Humidity 20    
Precipitation  
Precipitation 0.00 in 0.09 in 1.39 in (1905)
Month to date precipitation 0.01 2.60  
Year to date precipitation 11.70 15.85  
Snow  
Snow 0.00 in 0.00 in 0.00 in ()
Month to date snowfall 0.0 0.0  
Since 1 June snowfall 0.0 0.0  
Since 1 July snowfall 0.0 0.0  
Snow Depth 0.00 in    
Sea Level Pressure  
Sea Level Pressure 29.83 in    
Wind  
Wind Speed 11 mph (WNW)    
Max Wind Speed 28 mph    
Max Gust Speed 43 mph    
Visibility 10 miles    
Events      
T = Trace of Precipitation, MM = Missing Value Source: NWS Daily Summary

Daily Weather History Graph

Daily Weather History Graph

Search for Another Location

Airport or City:

Trip Planner

Search our weather history database for the weather conditions in past years. The results will help you decide how hot, cold, wet, or windy it might be!

Date:

Astronomy

Jul. 26, 2012 Rise Set
Actual Time 6:10 AM CDT 8:55 PM CDT
Civil Twilight 5:37 AM CDT 9:29 PM CDT
Nautical Twilight 4:55 AM CDT 10:10 PM CDT
Astronomical Twilight 4:06 AM CDT 10:59 PM CDT
Moon 2:43 PM CDT (7/26) 12:06 AM CDT (7/26)
Length of Visible Light 15h 51m
Length of Day
14h 45m
First Quarter, 54% of the Moon is Illuminated
Jul 26
First Quarter
Aug 1
Full
Aug 9
Last Quarter
Aug 17
New
Aug 24
First Quarter

Hourly Weather History & Observations

Time (CDT) Temp. Heat Index Dew Point Humidity Pressure Visibility Wind Dir Wind Speed Gust Speed Precip Events Conditions
12:56 AM 68.0 °F - 64.0 °F 87% 29.74 in 10.0 mi Calm Calm - N/A   Clear
1:56 AM 69.1 °F - 63.0 °F 81% 29.77 in 10.0 mi NW 3.5 mph - N/A   Partly Cloudy
2:56 AM 68.0 °F - 61.0 °F 78% 29.79 in 10.0 mi Calm Calm - N/A   Clear
3:56 AM 66.0 °F - 60.1 °F 81% 29.80 in 10.0 mi Calm Calm - N/A   Clear
4:56 AM 64.4 °F - 59.0 °F 83% 29.82 in 10.0 mi WNW 4.6 mph - N/A   Clear
5:56 AM 62.1 °F - 57.9 °F 86% 29.80 in 10.0 mi WNW 4.6 mph - N/A   Clear
6:56 AM 63.0 °F - 59.0 °F 87% 29.81 in 10.0 mi Calm Calm - N/A   Clear
7:56 AM 69.1 °F - 60.1 °F 73% 29.82 in 10.0 mi West 4.6 mph - N/A   Clear
8:56 AM 75.0 °F - 60.1 °F 60% 29.83 in 10.0 mi SW 3.5 mph - N/A   Clear
9:56 AM 80.1 °F 80.6 °F 57.9 °F 47% 29.83 in 10.0 mi WSW 5.8 mph - N/A   Clear
10:56 AM 82.9 °F 82.1 °F 55.9 °F 39% 29.84 in 10.0 mi West 13.8 mph 19.6 mph N/A   Clear
11:56 AM 87.1 °F 84.9 °F 53.1 °F 31% 29.83 in 10.0 mi WNW 13.8 mph 21.9 mph N/A   Partly Cloudy
12:56 PM 88.0 °F 85.7 °F 53.1 °F 30% 29.82 in 10.0 mi WNW 13.8 mph 20.7 mph N/A   Partly Cloudy
1:56 PM 88.0 °F - 48.9 °F 26% 29.81 in 10.0 mi NW 23.0 mph 32.2 mph N/A   Scattered Clouds
2:56 PM 89.1 °F - 50.0 °F 26% 29.81 in 10.0 mi NW 20.7 mph 28.8 mph N/A   Scattered Clouds
3:56 PM 89.1 °F - 51.1 °F 27% 29.82 in 10.0 mi NW 16.1 mph 42.6 mph N/A   Scattered Clouds
4:56 PM 88.0 °F 85.9 °F 54.0 °F 31% 29.82 in 10.0 mi NW 20.7 mph 31.1 mph N/A   Scattered Clouds
5:56 PM 86.0 °F 84.5 °F 55.4 °F 35% 29.85 in 10.0 mi NNW 18.4 mph 28.8 mph N/A   Partly Cloudy
6:56 PM 82.9 °F 82.1 °F 55.9 °F 39% 29.83 in 10.0 mi NNW 20.7 mph 29.9 mph N/A   Partly Cloudy
7:56 PM 78.8 °F - 53.6 °F 42% 29.87 in 10.0 mi North 20.7 mph - N/A   Clear
8:56 PM 75.0 °F - 54.0 °F 48% 29.87 in 10.0 mi NNW 12.7 mph - N/A   Clear
9:56 PM 70.0 °F - 55.0 °F 59% 29.90 in 10.0 mi NW 8.1 mph - N/A   Clear
10:56 PM 66.9 °F - 55.0 °F 66% 29.91 in 10.0 mi NW 9.2 mph - N/A   Clear
11:56 PM 64.9 °F - 55.9 °F 73% 29.93 in 10.0 mi NW 6.9 mph - N/A   Clear